Погода в Славгороде

Хотите узнать прогноз погоды в Славгороде? Тогда Вам сюда: Погода в Славгороде

Поиск расширенной информации на нашем сайте:

Полезная информация:

Новости сайта



02.01.2020
Опубликован Долгосрочный прогноз погоды по городам России и ближнего зарубежья на январь 2020 года.
Карты: Прогноз на январь и февраль 2020 года, Сравнение прогнозируемой аномалии приземной температуры воздуха на январь 2020 года по разным моделям.




Погода в Славгороде - сегодня

Время (UTC), дата Ветер
(°,м/с) 
Видим.   Явления Облачность Т
(°С)
Тd
(°С)
f(%) Тe
(°С)
Pmin
(гПа)
dP
(гПа)
Po
(мм)
O2
(г/м3)
Тmin Tmax R s Состояние
почвы
09 16.01.21 140 (ЮВ) 20000 м    4/0 средняя 
[Ac trans]
-12.2 -18 62 -16  1027.5  -3.4  758  321           
12 16.01.21 160 (Ю) 20000 м    4/0 верхняя 
[Ci sp]
-11.3 -17.8 59 -15  1024.3  -3  756  319    -10.5       
15 16.01.21 160 (Ю) 20000 м  позёмок  ясно 
-12.7 -17.8 66 -19  1020.2  -4.2  753  319           
18 16.01.21 160 (Ю) 20000 м  позёмок  ясно 
-11.5 -17.2 63 -16  1016.3  -3.8  750  317           
21 16.01.21 180 (Ю) 7-10{10}  20000 м  позёмок  ясно 
-11.1 -16.4 65 -17  1013.1  -3.1  747  315           
00 17.01.21 210 (ЮЗ) 7-11{14}  20000 м  позёмок  ясно 
-10.6 -15.3 68 -17  1012.3  -0.8  747  314  -14.6      17  неравномерный
сухой снег
100% 
03 17.01.21 240 (ЮЗ) 5{11}  20000 м  позёмок  10/3 600 м кучево-дожд., средняя, верхняя 
[Cb cap|Ac trans|Ci sp]
-9.6 -13.4 74 -14  1013.1  0.9  748  313           
06 17.01.21 260 (З) 5{10}  20000 м  позёмок  10/0 верхняя 
[Ci sp]
-8 -10.8 80 -12  1016  750  312           
09 17.01.21 260 (З) 20000 м  позёмок  10/4 600 м кучево-дожд., верхняя 
[Cb cap|Ci sp]
-6.6 -9.2 82 -10  1018.4  2.4  752  311           
12 17.01.21 220 (ЮЗ) 20000 м    10/8 660 м кучево-дожд., верхняя 
[Cb cap|Ci sp]
-7.9 -10.1 84 -12  1020.7  2.2  753  314    -6.6       
15 17.01.21 190 (Ю) 20000 м  позёмок  ясно 
-13 -15.4 82 -18  1020.2  -0.8  753  320           
18 17.01.21 180 (Ю) 7-10{10}  20000 м  позёмок  ясно 
-11.7 -13.7 85 -18  1015.8  -4.3  749  317           
21 17.01.21 210 (ЮЗ) 6{12}  20000 м  позёмок  ясно 
-8.7 -10.8 85 -14  1013.7  -1.8  748  312           
00 18.01.21 230 (ЮЗ) 20000 м    10/0 верхняя 
[Ci sp]
-9.5 -12.2 81 -13  1012.3  -1.5  747  313  -14      18  неравномерный
сухой снег
100% 
03 18.01.21 230 (ЮЗ) 20000 м    10/0 средняя, верхняя 
[Ac trans|Ci sp]
-8.8 -11.3 82 -12  1012.6  0.4  747  312           
06 18.01.21 270 (З) 20000 м    10/0 средняя, верхняя 
[Ac trans|Ci sp]
-7.1 -10 80 -10  1013.3  0.7  748  310           
09 18.01.21 270 (З) 20000 м    3/0 средняя 
[Ac trans]
-10.3 -14.2 73 -13  1014.4  0.9  748  315           
12 18.01.21 250 (З) 20000 м    1/0 верхняя 
[Ci sp]
-16 -18.7 80 -20  1016.6  1.9  750  322    -7.1       
15 18.01.21 300 (СЗ) 20000 м    ясно 
-19.1 -21.8 79 -23  1018.7  1.8  751  327           
18 18.01.21 270 (З) 20000 м    ясно 
-22 -25.1 76 -25  1020.8  1.9  753  332           
21 18.01.21 280 (З) 20000 м    ясно 
-24.5 -27.9 73 -28  1021.9  0.9  753  335           
00 19.01.21 240 (ЮЗ) 20000 м    ясно 
-29.2 -33.2 68 -30  1023.5  1.2  754  342  -29.3      19  неравномерный
сухой снег
100% 
03 19.01.21 220 (ЮЗ) 20000 м    3/0 верхняя 
[Ci sp]
-27.8 -31.6 70 -31  1024.2  0.8  755  341  -29.5         
06 19.01.21 210 (ЮЗ) 20000 м    6/0 верхняя 
[Ci sp]
-23.9 -27.4 73 -27  1025.1  1.2  756  336           
09 19.01.21 270 (З) 20000 м    6/0 верхняя 
[Ci sp]
-21.1 -24.2 76 -21  1024.3  -0.6  755  332           
Время (UTC), дата Ветер
(°,м/с) 
Видим.   Явления Облачность Т
(°С)
Тd
(°С)
f(%) Тe
(°С)
Pmin
(гПа)
dP
(гПа)
Po
(мм)
O2
(г/м3)
Тmin Tmax R s Состояние
почвы

Для получения пояснительной информации подведите курсор к названию столбца.

ПОГОДА в Славгороде - архив

Всё, что Вы хотите узнать о погоде в Славгороде - удобно и подробно!

Выберите нужную дату (начиная с 1 января 2019* года) и нажмите кнопку "Найти".
Будут отображены архивные сводки погоды по пункту Славгород, начиная с указанной даты.


Отображать данные в формате CSV (для использования в таблицах Excel)


Внимание! Наш архив погоды предназначен исключительно для личного некоммерческого использования в познавательных целях. Если Вам необходимы официальные справки о состоянии погоды (для производственных, юридических, коммерческих и т.п. целей), обращайтесь в органы Росгидромета.

*Примечание: данная дата относится к архиву по метеостанциям СССР (Россия, СНГ, Балтия).
Архив по метеостанциям Зарубежной Европы и Азии (кроме Китая) хранится 10 дней, по другим регионам земного шара (Китай, Африка, Америка, Австралия, Океания) - 1 день.

Славгород - район местоположения метеостанции


Название, широта, долгота, высота метеостанции:
Славгород 53°ш. 78.6°д. 126 м над ур. моря [Российская Федерация]

Дополнительная информация

В oтличие oт бoльшинства пoгoдных сайтoв мы публикуем пoдрoбную метеoинфoрмацию в детальнoм прoфессиoнальнoм фoрмате.

Характеристики температуры и влажнoсти вoздуха измеряются на высoте 2 м в тени вдали oт зданий и деревьев.
Скoрoсть ветра измеряется на высoте 10 м (на урoвне рoста челoвека скoрoсть ветра ниже в 1.5-2 раза). Если метеoстанция нахoдится в гoрoде или в лесу, тo скoрoсть ветра занижена на 2-4 м/с пo сравнению с oткрытым местoм. Скoрoсть ветра над акватoриями крупных рек и oзёр, а также на вершинах хoлмoв на 2-5 м/с выше, чем в oбычных услoвиях.
Атмoсфернoе давление в разных тoчках местнoсти мoжет значительнo oтличаться oт давления на метеoстанции, в зависимoсти oт услoвий рельефа (при пoдъёме на 10 м давление пoнижается примернo на 1 мм рт.ст.).